Regional Weather Roundup
Issued by NWS

Home | Current Version | Previous Version | Graphics & Text | Print | Product List | Glossary On
Versions: 1 2 3 4 5 6 7 8 9 10 11 12 13 14 15 16 17 18 19 20 21 22 23 24 25 26 27 28 29 30 31 32 33 34 35 36 37 38 39 40 41 42 43 44 45 46 47 48 49 50
000
ASUS43 KDTX 010110
RWRMI
MICHIGAN HOURLY REGIONAL WEATHER ROUNDUP
NATIONAL WEATHER SERVICE DETROIT/PONTIAC MI
800 PM EST SAT FEB 28 2015

NOTE: "FAIR" INDICATES FEW OR NO CLOUDS BELOW 12,000 FEET WITH NO
SIGNIFICANT WEATHER AND/OR OBSTRUCTION TO VISIBILITY.

MIZ047>049-052>055-059>063-066>070-074>076-081>083-010200-
SOUTHEAST LOWER MICHIGAN

CITY           SKY/WX    TMP DP  RH WIND       PRES   REMARKS
ADRIAN         MOCLDY    13   1  59 CALM      30.60F
ALMA             N/A     11  -1  57 CALM      30.57S
ANN ARBOR      PTCLDY    14   2  58 S5        30.60S
BAD AXE        CLEAR      5  -2  72 CALM      30.59F
DETROIT CITY   CLEAR     16   2  54 SE5       30.63S
DETROIT        PTCLDY    16   3  56 SE5       30.63F
FLINT          CLEAR     17   0  47 S8        30.58S
GROSSE ILE     PTCLDY    10   3  72 CALM      30.62S
HILLSDALE      PTCLDY    14   0  52 SE5       30.54F
HOWELL         PTCLDY    15   1  53 S7        30.57S

CITY           SKY/WX    TMP DP  RH WIND       PRES   REMARKS
JACKSON        PTCLDY    15   2  56 SE6       30.56F
LAMBERTVILLE   PTCLDY    18   5  57 CALM      30.62F
LANSING        PTCLDY    17   1  49 S7        30.57R
LAPEER         NOT AVBL
MASON          PTCLDY    15   1  54 S9        30.57S
MONROE         PTCLDY    12   3  67 E3        30.61S
MT. CLEMENS    PTCLDY     7   0  72 S8        30.61S
PONTIAC        PTCLDY    15   3  59 SE7       30.57S
PORT HOPE        N/A      9  -3  58 CALM      30.59F
PORT HURON     PTCLDY    12   3  67 S5        30.63S
TRI CITIES     CLEAR     17   0  47 W5        30.57F
YPSILANTI      PTCLDY    14   2  58 SE8       30.62R
$$
MIZ043>046-050>051-056>058-064>065-071>073-077>080-010200-
SOUTHWEST LOWER MICHIGAN

CITY           SKY/WX    TMP DP  RH WIND       PRES   REMARKS
BATTLE CREEK   MOCLDY    19   1  45 SE7       30.54F
BENTON HARBOR  CLOUDY    18   4  54 SE5       30.55F
BIG RAPIDS     CLEAR     16   2  55 SW5       30.52S
COLDWATER      MOCLDY    16   2  54 SE8       30.55F
HOLLAND        MOCLDY    15   4  61 CALM      30.55F
GRAND RAPIDS   MOCLDY    17  -2  43 S6        30.55S
KALAMAZOO      MOCLDY    18   2  49 SE5       30.54F
MARSHALL       MOCLDY    15   1  54 SE5       30.54F
MUSKEGON       MOCLDY    15   4  61 CALM      30.56F
$$
MIZ016>042-010200-
NORTHERN LOWER MICHIGAN

CITY           SKY/WX    TMP DP  RH WIND       PRES   REMARKS
ALPENA         CLEAR     21   4  47 S8        30.52R
BEAVER ISLAND  CLEAR     17  11  74 SW10G18   30.50S
BELLAIRE       CLEAR     10   3  71 CALM      30.53R
CADILLAC       CLEAR     12   1  60 S6        30.47S
CHARLEVOIX     CLEAR     14   8  78 CALM      30.54S
FRANKFORT      CLEAR     17  10  75 S9        30.53S
GAYLORD        CLEAR     15   1  53 S7        30.46S
GRAYLING       CLEAR     18   1  48 S3        30.49S
HARBOR SPRINGS CLEAR     15   9  76 CALM      30.51S
HOUGHTON LAKE  CLEAR     14   2  58 S7        30.50F
MANISTEE       CLEAR     16   5  62 S3        30.53F
OSCODA         CLEAR     16   4  59 SW9       30.56S
PELLSTON       CLEAR     11   5  77 SW3       30.51S
TRAVERSE CITY  CLEAR     16   4  59 SW3       30.51S
$$
MIZ007>008-015-010200-
EASTERN UPPER MICHIGAN

CITY           SKY/WX    TMP DP  RH WIND       PRES   REMARKS
KINROSS        CLEAR     12  10  92 S5        30.47F
MACKINAC ISLAN CLEAR     16   9  73 SW8       30.49F
NEWBERRY       CLEAR     14   8  78 S16       30.43F WCI  -2
S. S. MARIE    CLEAR     13   3  64 S3        30.48F
$$
MIZ004>006-011>014-085-010200-
CENTRAL UPPER MICHIGAN

CITY           SKY/WX    TMP DP  RH WIND       PRES   REMARKS
MANISTIQUE     MOCLDY    20  13  74 S15G23    30.46S
ESCANABA       CLEAR     16   1  53 S15       30.46F
MENOMINEE      CLEAR     14   0  52 SW7       30.47S
SAWYER-GWINN   CLEAR     16   0  48 S16       30.35R
$$
MIZ001>003-009>011-084-010200-
WESTERN UPPER MICHIGAN

CITY           SKY/WX    TMP DP  RH WIND       PRES   REMARKS
IRON MOUNTAIN  CLEAR     16  -3  43 S10       30.37S
HOUGHTON       CLEAR     10  -2  58 NW3       30.29S
COPPER HARBOR    N/A     10   3  73 W5        30.33S
IRONWOOD       CLEAR     16  -4  41 S9G16     30.27F
$$

ABBREVIATIONS USED IN REMARKS
   TC - TEMPERATURE IN CELSIUS
  WCI - WIND CHILL INDEX
   HX - HEAT INDEX
  VSB - VISIBILITY



USA.gov is the U.S. government's official web portal to all federal, state and local government web resources and services.